FW8568 Weather Reports


Display with metric or nautical units.
time (UTC)temp
F
wind
direction
speed
MPH
gust
MPH
rain 1hr
in
rain 24hr
in
rain mn
in
humidity
%
barometer
mb
20260509153805 93 242 1.0 3.0 0.00 0.00 0.00 20 1010.5
20260509153301 93 187 0.0 1.0 0.00 0.00 0.00 20 1010.8
20260509152758 91 65 0.0 1.0 0.00 0.00 0.00 21 1010.8
20260509152253 92 191 1.0 1.0 0.00 0.00 0.00 21 1010.7
20260509151751 91 80 0.0 1.0 0.00 0.00 0.00 21 1010.5
20260509151247 90 195 0.0 1.0 0.00 0.00 0.00 21 1010.5
20260509150746 89 81 0.0 2.0 0.00 0.00 0.00 22 1010.6
20260509150244 88 257 0.0 2.0 0.00 0.00 0.00 22 1010.6
20260509145740 86 214 1.0 3.0 0.00 0.00 0.00 24 1010.5
20260509145240 86 278 1.0 2.0 0.00 0.00 0.00 24 1010.6
20260509144737 84 292 1.0 3.0 0.00 0.00 0.00 24 1010.5
20260509144234 84 246 2.0 3.0 0.00 0.00 0.00 25 1010.6
20260509143731 84 248 2.0 3.0 0.00 0.00 0.00 24 1010.5
20260509143228 84 274 1.0 2.0 0.00 0.00 0.00 25 1010.4
20260509142723 83 242 2.0 2.0 0.00 0.00 0.00 25 1010.5
20260509142220 82 245 1.0 3.0 0.00 0.00 0.00 25 1010.5
20260509141716 82 269 1.0 3.0 0.00 0.00 0.00 25 1010.5
20260509141214 81 288 3.0 3.0 0.00 0.00 0.00 26 1010.2
20260509140710 82 270 1.0 2.0 0.00 0.00 0.00 26 1010.4
20260509140208 80 259 0.0 3.0 0.00 0.00 0.00 27 1010.3
20260509135705 80 280 1.0 2.0 0.00 0.00 0.00 27 1009.9
20260509135203 79 246 2.0 4.0 0.00 0.00 0.00 28 1010.3
20260509134659 78 244 2.0 3.0 0.00 0.00 0.00 29 1010.1
20260509134157 76 248 3.0 3.0 0.00 0.00 0.00 30 1009.9
20260509133654 75 255 2.0 3.0 0.00 0.00 0.00 32 1009.8
20260509133151 74 277 2.0 3.0 0.00 0.00 0.00 32 1009.7
20260509132649 73 307 1.0 3.0 0.00 0.00 0.00 31 1009.7
20260509132147 73 284 0.0 2.0 0.00 0.00 0.00 32 1009.8
20260509131643 73 314 0.0 2.0 0.00 0.00 0.00 32 1009.5
20260509131140 72 291 1.0 2.0 0.00 0.00 0.00 34 1009.6
20260509130636 72 256 1.0 2.0 0.00 0.00 0.00 35 1009.6
20260509130132 71 268 0.0 1.0 0.00 0.00 0.00 35 1009.4
20260509125629 71 254 2.0 3.0 0.00 0.00 0.00 36 1009.3
20260509125126 70 248 0.0 1.0 0.00 0.00 0.00 35 1009.5
20260509124622 70 290 0.0 2.0 0.00 0.00 0.00 35 1009.2
20260509124119 70 315 0.0 1.0 0.00 0.00 0.00 34 1009.1
20260509123617 71 270 0.0 1.0 0.00 0.00 0.00 34 1009.3
20260509123114 71 284 0.0 2.0 0.00 0.00 0.00 35 1009.0
20260509122609 71 291 0.0 2.0 0.00 0.00 0.00 33 1009.0
20260509122107 71 295 1.0 2.0 0.00 0.00 0.00 32 1008.8
20260509121603 71 237 1.0 1.0 0.00 0.00 0.00 32 1008.7
20260509121101 71 239 0.0 1.0 0.00 0.00 0.00 32 1008.7
20260509120559 70 312 0.0 2.0 0.00 0.00 0.00 32 1008.8
20260509120057 70 306 1.0 2.0 0.00 0.00 0.00 32 1009.0
20260509115554 71 293 0.0 1.0 0.00 0.00 0.00 32 1008.6
20260509115052 71 271 0.0 1.0 0.00 0.00 0.00 32 1008.8
20260509114549 71 312 0.0 1.0 0.00 0.00 0.00 32 1008.7
20260509114048 71 319 0.0 1.0 0.00 0.00 0.00 31 1008.6
20260509113546 71 284 0.0 1.0 0.00 0.00 0.00 31 1008.6
20260509113043 72 284 0.0 0.0 0.00 0.00 0.00 32 1008.7
20260509112540 72 312 0.0 0.0 0.00 0.00 0.00 30 1008.7
20260509112037 72 49 0.0 0.0 0.00 0.00 0.00 31 1008.8
20260509111534 72 284 0.0 0.0 0.00 0.00 0.00 30 1008.7
20260509111031 73 291 0.0 0.0 0.00 0.00 0.00 30 1008.3
20260509110528 73 325 0.0 0.0 0.00 0.00 0.00 30 1008.6
20260509110025 73 324 0.0 1.0 0.00 0.00 0.00 29 1008.5
20260509105523 73 284 0.0 0.0 0.00 0.00 0.00 29 1008.7
20260509105020 73 284 0.0 0.0 0.00 0.00 0.00 28 1008.5
20260509104517 73 257 0.0 0.0 0.00 0.00 0.00 29 1008.4
20260509104014 74 261 0.0 0.0 0.00 0.00 0.00 27 1008.6
20260509103512 74 284 0.0 0.0 0.00 0.00 0.00 27 1008.5
20260509103010 74 298 0.0 0.0 0.00 0.00 0.00 27 1008.5
20260509102507 74 298 0.0 1.0 0.00 0.00 0.00 30 1008.5
20260509102003 74 284 0.0 0.0 0.00 0.00 0.00 28 1008.3
20260509101500 75 284 0.0 0.0 0.00 0.00 0.00 26 1008.7
20260509100957 75 257 0.0 1.0 0.00 0.00 0.00 26 1008.2
20260509100454 75 258 0.0 1.0 0.00 0.00 0.00 26 1008.4
20260509095951 76 270 0.0 0.0 0.00 0.00 0.00 26 1008.4
20260509095447 76 267 0.0 0.0 0.00 0.00 0.00 25 1008.1
20260509094945 75 174 0.0 0.0 0.00 0.00 0.00 26 1008.3
20260509094441 75 261 0.0 0.0 0.00 0.00 0.00 25 1008.3
20260509093939 75 261 0.0 0.0 0.00 0.00 0.00 27 1008.3
20260509093436 76 261 0.0 0.0 0.00 0.00 0.00 25 1008.4
20260509092934 76 284 0.0 0.0 0.00 0.00 0.00 25 1008.3
20260509092432 77 257 0.0 0.0 0.00 0.00 0.00 24 1008.7
20260509091930 77 250 0.0 0.0 0.00 0.00 0.00 24 1008.5
20260509091427 76 311 0.0 1.0 0.00 0.00 0.00 24 1008.4
20260509090924 76 30 0.0 0.0 0.00 0.00 0.00 26 1008.6
20260509090421 76 299 0.0 0.0 0.00 0.00 0.00 25 1008.4
20260509085919 76 342 0.0 0.0 0.00 0.00 0.00 25 1008.4
20260509085416 77 270 0.0 0.0 0.00 0.00 0.00 25 1008.5
20260509084911 77 324 0.0 0.0 0.00 0.00 0.00 24 1008.4
20260509084409 77 312 0.0 0.0 0.00 0.00 0.00 25 1008.5
20260509083906 77 349 0.0 0.0 0.00 0.00 0.00 24 1008.5
20260509083403 78 359 0.0 0.0 0.00 0.00 0.00 24 1008.3
20260509082900 78 268 0.0 0.0 0.00 0.00 0.00 24 1008.3
20260509082357 79 270 0.0 0.0 0.00 0.00 0.00 23 1008.1
20260509081854 80 161 0.0 0.0 0.00 0.00 0.00 23 1008.2
20260509081351 80 147 1.0 2.0 0.00 0.00 0.00 23 1008.2
20260509080849 80 133 1.0 1.0 0.00 0.00 0.00 24 1008.2
20260509080346 81 145 0.0 0.0 0.00 0.00 0.00 23 1008.1
20260509075844 81 164 0.0 1.0 0.00 0.00 0.00 23 1008.2
20260509075341 81 34 0.0 0.0 0.00 0.00 0.00 23 1008.0
20260509074838 82 108 2.0 2.0 0.00 0.00 0.00 22 1008.1
20260509074336 82 104 0.0 2.0 0.00 0.00 0.00 22 1008.1
20260509073832 82 149 0.0 3.0 0.00 0.00 0.00 23 1008.2
20260509073329 82 92 2.0 2.0 0.00 0.00 0.00 22 1008.2
20260509072825 83 77 0.0 1.0 0.00 0.00 0.00 22 1008.1
20260509072322 83 107 0.0 1.0 0.00 0.00 0.00 22 1008.2
20260509071819 84 104 0.0 1.0 0.00 0.00 0.00 21 1008.0
20260509071316 84 123 3.0 3.0 0.00 0.00 0.00 20 1007.9
20260509070813 85 99 1.0 2.0 0.00 0.00 0.00 20 1008.0
20260509070309 85 121 1.0 3.0 0.00 0.00 0.00 20 1008.2
20260509065806 85 104 2.0 3.0 0.00 0.00 0.00 20 1007.9
20260509065305 85 95 3.0 3.0 0.00 0.00 0.00 20 1008.2
20260509064758 86 75 0.0 3.0 0.00 0.00 0.00 19 1008.1
20260509064255 86 90 2.0 2.0 0.00 0.00 0.00 19 1008.3
20260509063753 86 104 0.0 3.0 0.00 0.00 0.00 20 1008.1
20260509063249 86 94 2.0 3.0 0.00 0.00 0.00 19 1008.1
20260509062747 86 99 0.0 2.0 0.00 0.00 0.00 19 1008.1
20260509062243 86 84 1.0 2.0 0.00 0.00 0.00 20 1008.0
20260509061740 87 73 0.0 2.0 0.00 0.00 0.00 19 1008.1
20260509061238 88 96 0.0 3.0 0.00 0.00 0.00 20 1008.2
20260509060735 88 81 4.0 5.0 0.00 0.00 0.00 18 1008.0
20260509060232 88 64 2.0 4.0 0.00 0.00 0.00 19 1008.1
20260509055727 88 93 1.0 3.0 0.00 0.00 0.00 18 1008.2
20260509055224 89 50 0.0 3.0 0.00 0.00 0.00 19 1008.1
20260509054720 89 78 1.0 3.0 0.00 0.00 0.00 19 1008.1
20260509054217 89 82 2.0 4.0 0.00 0.00 0.00 18 1007.9
20260509053716 90 66 2.0 5.0 0.00 0.00 0.00 18 1007.6
20260509053212 90 77 2.0 4.0 0.00 0.00 0.00 18 1007.9
20260509052710 90 96 2.0 5.0 0.00 0.00 0.00 18 1007.9
20260509052208 90 84 1.0 4.0 0.00 0.00 0.00 17 1007.9
20260509051705 90 130 1.0 4.0 0.00 0.00 0.00 18 1007.9
20260509051203 91 101 3.0 4.0 0.00 0.00 0.00 18 1008.1
20260509050700 91 88 3.0 4.0 0.00 0.00 0.00 18 1008.0
20260509050156 91 100 2.0 4.0 0.00 0.00 0.00 18 1008.0
20260509045653 91 112 1.0 4.0 0.00 0.00 0.00 18 1007.6
20260509045150 91 63 1.0 5.0 0.00 0.00 0.00 18 1007.9
20260509044647 91 82 2.0 4.0 0.00 0.00 0.00 18 1007.8
20260509044145 91 87 3.0 5.0 0.00 0.00 0.00 18 1007.9
20260509043641 91 68 3.0 3.0 0.00 0.00 0.00 18 1007.5
20260509043137 91 78 4.0 4.0 0.00 0.00 0.00 18 1007.5
20260509042634 92 91 3.0 5.0 0.00 0.00 0.00 17 1007.5
20260509042129 92 91 3.0 7.0 0.00 0.00 0.00 18 1007.5
20260509041626 92 82 3.0 5.0 0.00 0.00 0.00 18 1007.5
20260509041124 91 56 2.0 4.0 0.00 0.00 0.00 18 1007.6
20260509040622 92 121 2.0 4.0 0.00 0.00 0.00 17 1007.2
20260509040119 92 103 0.0 5.0 0.00 0.00 0.00 17 1007.4
20260509035615 92 118 1.0 6.0 0.00 0.00 0.00 18 1007.4
20260509035112 92 128 0.0 3.0 0.00 0.00 0.00 18 1007.3
20260509034610 92 79 2.0 6.0 0.00 0.00 0.00 18 1007.1
20260509034107 92 17 2.0 4.0 0.00 0.00 0.00 18 1007.0
20260509033604 92 91 3.0 4.0 0.00 0.00 0.00 18 1007.1
20260509033101 92 70 3.0 4.0 0.00 0.00 0.00 18 1007.1
20260509032558 92 95 2.0 3.0 0.00 0.00 0.00 19 1006.8
20260509032055 92 102 5.0 5.0 0.00 0.00 0.00 18 1006.9
20260509031553 92 36 2.0 5.0 0.00 0.00 0.00 18 1007.0
20260509031050 92 92 2.0 5.0 0.00 0.00 0.00 19 1006.7
20260509030548 93 59 1.0 3.0 0.00 0.00 0.00 19 1006.8
20260509030044 93 102 2.0 3.0 0.00 0.00 0.00 18 1006.7
20260509025541 93 119 0.0 4.0 0.00 0.00 0.00 18 1006.8
20260509025036 93 97 3.0 4.0 0.00 0.00 0.00 18 1006.7
20260509024532 93 91 3.0 3.0 0.00 0.00 0.00 17 1006.4
20260509024029 94 85 2.0 2.0 0.00 0.00 0.00 17 1006.4
20260509023527 94 81 2.0 4.0 0.00 0.00 0.00 17 1006.4
20260509023023 94 81 2.0 3.0 0.00 0.00 0.00 17 1006.1
20260509022520 95 71 2.0 3.0 0.00 0.00 0.00 17 1006.1
20260509022018 95 77 1.0 2.0 0.00 0.00 0.00 17 1006.3
20260509021514 96 102 1.0 3.0 0.00 0.00 0.00 17 1006.2
20260509021011 96 84 4.0 5.0 0.00 0.00 0.00 17 1006.2
20260509020510 97 83 4.0 5.0 0.00 0.00 0.00 16 1006.0
20260509020006 98 81 0.0 3.0 0.00 0.00 0.00 16 1006.1
20260509015505 99 95 3.0 5.0 0.00 0.00 0.00 16 1006.2
20260509015001 99 94 2.0 5.0 0.00 0.00 0.00 15 1005.9
20260509014458 100 90 3.0 5.0 0.00 0.00 0.00 15 1005.9
20260509013954 99 84 3.0 4.0 0.00 0.00 0.00 15 1006.0
20260509013452 99 62 2.0 5.0 0.00 0.00 0.00 16 1005.8
20260509012947 99 89 3.0 9.0 0.00 0.00 0.00 15 1005.9
20260509012444 100 76 3.0 6.0 0.00 0.00 0.00 15 1006.0
20260509011941 101 83 3.0 7.0 0.00 0.00 0.00 15 1006.2
20260509011439 102 102 5.0 6.0 0.00 0.00 0.00 14 1006.2
20260509010936 103 104 3.0 5.0 0.00 0.00 0.00 14 1006.1
20260509010434 103 86 3.0 6.0 0.00 0.00 0.00 14 1006.3
20260509005931 103 91 3.0 6.0 0.00 0.00 0.00 14 1006.3
20260509005429 102 106 5.0 10.0 0.00 0.00 0.00 14 1006.4
20260509004928 104 80 3.0 6.0 0.00 0.00 0.00 14 1006.2
20260509004425 103 93 4.0 5.0 0.00 0.00 0.00 14 1006.3
20260509003923 103 94 5.0 8.0 0.00 0.00 0.00 14 1006.3
20260509003421 103 144 2.0 7.0 0.00 0.00 0.00 14 1006.3
20260509002917 104 101 2.0 6.0 0.00 0.00 0.00 14 1006.4
20260509002416 102 119 5.0 7.0 0.00 0.00 0.00 14 1006.4
20260509001912 104 88 5.0 6.0 0.00 0.00 0.00 14 1006.3
20260509001408 102 89 2.0 6.0 0.00 0.00 0.00 14 1006.6
20260509000906 103 124 2.0 6.0 0.00 0.00 0.00 14 1006.5
20260509000404 103 67 4.0 9.0 0.00 0.00 0.00 14 1006.1
20260508235859 102 92 3.0 9.0 0.00 0.00 0.00 15 1006.5
20260508235357 102 92 4.0 9.0 0.00 0.00 0.00 15 1006.5
20260508234854 102 80 4.0 7.0 0.00 0.00 0.00 14 1006.5
20260508234350 103 24 6.0 7.0 0.00 0.00 0.00 14 1006.5
20260508233849 102 111 2.0 10.0 0.00 0.00 0.00 14 1006.7
20260508233348 102 119 4.0 7.0 0.00 0.00 0.00 15 1006.8
20260508232844 102 157 0.0 7.0 0.00 0.00 0.00 15 1006.7
20260508232340 102 66 5.0 9.0 0.00 0.00 0.00 14 1007.0
20260508231839 103 91 9.0 11.0 0.00 0.00 0.00 14 1007.0
20260508231335 103 63 3.0 8.0 0.00 0.00 0.00 14 1006.9
20260508230832 102 54 5.0 9.0 0.00 0.00 0.00 15 1007.1
20260508230328 103 80 4.0 7.0 0.00 0.00 0.00 15 1007.2
20260508225826 102 84 4.0 9.0 0.00 0.00 0.00 15 1007.2
20260508225322 102 91 5.0 6.0 0.00 0.00 0.00 14 1007.1
20260508224820 102 59 3.0 6.0 0.00 0.00 0.00 15 1007.3
20260508224318 101 96 3.0 9.0 0.00 0.00 0.00 15 1007.3
20260508223815 102 100 4.0 8.0 0.00 0.00 0.00 16 1007.4
20260508223312 102 95 6.0 6.0 0.00 0.00 0.00 16 1007.5
20260508222810 100 91 4.0 6.0 0.00 0.00 0.00 16 1007.8
20260508222307 100 91 3.0 7.0 0.00 0.00 0.00 16 1008.0
20260508221803 100 109 3.0 10.0 0.00 0.00 0.00 16 1007.8
20260508221259 100 82 2.0 7.0 0.00 0.00 0.00 16 1008.0
20260508220755 100 109 2.0 9.0 0.00 0.00 0.00 17 1008.2
20260508220252 99 83 3.0 12.0 0.00 0.00 0.00 16 1008.2
20260508215748 99 101 4.0 10.0 0.00 0.00 0.00 17 1008.5
20260508215245 99 68 5.0 12.0 0.00 0.00 0.00 18 1008.6
20260508214742 99 89 3.0 11.0 0.00 0.00 0.00 17 1008.5
20260508214239 100 84 3.0 7.0 0.00 0.00 0.00 17 1008.8
20260508213736 99 98 6.0 7.0 0.00 0.00 0.00 18 1008.7
20260508213232 99 79 4.0 9.0 0.00 0.00 0.00 18 1008.8
20260508212729 99 90 3.0 7.0 0.00 0.00 0.00 19 1008.7
20260508212225 99 115 3.0 6.0 0.00 0.00 0.00 17 1008.8
20260508211721 99 99 3.0 10.0 0.00 0.00 0.00 17 1008.9
20260508211217 100 100 5.0 8.0 0.00 0.00 0.00 17 1009.0
20260508210715 99 59 3.0 8.0 0.00 0.00 0.00 17 1009.0
20260508210212 99 84 6.0 7.0 0.00 0.00 0.00 16 1009.2
20260508205708 99 104 4.0 7.0 0.00 0.00 0.00 17 1009.2
20260508205205 99 110 5.0 8.0 0.00 0.00 0.00 17 1009.4
20260508204701 98 93 3.0 6.0 0.00 0.00 0.00 17 1009.5
20260508204157 98 107 3.0 5.0 0.00 0.00 0.00 17 1009.6
20260508203653 97 80 5.0 5.0 0.00 0.00 0.00 17 1009.8
20260508203150 97 112 3.0 7.0 0.00 0.00 0.00 17 1009.5
20260508202646 97 68 3.0 7.0 0.00 0.00 0.00 18 1009.7
20260508202144 96 117 7.0 10.0 0.00 0.00 0.00 18 1009.7
20260508201640 96 85 1.0 5.0 0.00 0.00 0.00 19 1009.9
20260508201137 95 104 4.0 6.0 0.00 0.00 0.00 19 1009.9
20260508200634 95 93 1.0 3.0 0.00 0.00 0.00 19 1010.1
20260508200130 95 112 4.0 5.0 0.00 0.00 0.00 19 1010.2
20260508195626 96 94 2.0 6.0 0.00 0.00 0.00 19 1010.1
20260508195123 95 141 2.0 6.0 0.00 0.00 0.00 19 1010.3
20260508194619 94 97 1.0 2.0 0.00 0.00 0.00 21 1010.2
20260508194117 94 51 2.0 4.0 0.00 0.00 0.00 21 1010.1
20260508193614 93 79 3.0 5.0 0.00 0.00 0.00 20 1010.4
20260508193110 93 113 3.0 4.0 0.00 0.00 0.00 20 1010.5
20260508192607 94 75 2.0 3.0 0.00 0.00 0.00 20 1010.4
20260508192104 93 80 2.0 3.0 0.00 0.00 0.00 22 1010.5
20260508191601 93 191 0.0 4.0 0.00 0.00 0.00 20 1010.7
20260508191057 93 87 1.0 2.0 0.00 0.00 0.00 20 1011.2
20260508190554 92 98 3.0 5.0 0.00 0.00 0.00 20 1011.0
20260508190051 92 90 3.0 3.0 0.00 0.00 0.00 20 1011.0
20260508185548 93 119 3.0 5.0 0.00 0.00 0.00 19 1011.3
20260508185046 93 36 2.0 2.0 0.00 0.00 0.00 21 1011.4
20260508184543 92 46 1.0 2.0 0.00 0.00 0.00 22 1011.6
20260508184039 91 91 2.0 4.0 0.00 0.00 0.00 21 1011.5
20260508183536 91 280 0.0 3.0 0.00 0.00 0.00 20 1011.4
20260508183032 91 254 1.0 2.0 0.00 0.00 0.00 21 1011.4
20260508182529 91 67 1.0 2.0 0.00 0.00 0.00 21 1011.7
20260508182025 91 19 1.0 2.0 0.00 0.00 0.00 21 1011.5
20260508181521 90 322 1.0 2.0 0.00 0.00 0.00 21 1011.8
20260508181019 91 307 0.0 2.0 0.00 0.00 0.00 21 1011.7
20260508180515 91 56 2.0 2.0 0.00 0.00 0.00 22 1011.9
20260508180011 91 95 2.0 2.0 0.00 0.00 0.00 21 1012.0
20260508175508 90 51 0.0 2.0 0.00 0.00 0.00 22 1012.1
20260508175005 89 86 1.0 5.0 0.00 0.00 0.00 21 1012.0
20260508174503 91 69 1.0 3.0 0.00 0.00 0.00 21 1012.0
20260508174000 90 45 1.0 2.0 0.00 0.00 0.00 21 1012.1
20260508173457 90 83 0.0 3.0 0.00 0.00 0.00 22 1011.9
20260508172952 89 76 1.0 2.0 0.00 0.00 0.00 21 1012.1
20260508172450 89 70 0.0 3.0 0.00 0.00 0.00 22 1012.2
20260508171946 89 104 0.0 2.0 0.00 0.00 0.00 23 1012.1
20260508171443 88 315 1.0 3.0 0.00 0.00 0.00 23 1012.3
20260508170939 89 101 2.0 2.0 0.00 0.00 0.00 22 1012.4
20260508170437 89 315 0.0 2.0 0.00 0.00 0.00 23 1012.4
20260508165933 88 55 1.0 2.0 0.00 0.00 0.00 22 1012.4
20260508165432 86 101 1.0 2.0 0.00 0.00 0.00 23 1012.5
20260508164927 86 1 1.0 2.0 0.00 0.00 0.00 23 1012.4
20260508164424 87 140 0.0 2.0 0.00 0.00 0.00 23 1012.5
20260508163921 87 91 1.0 2.0 0.00 0.00 0.00 24 1012.4
20260508163419 86 47 0.0 2.0 0.00 0.00 0.00 25 1012.4
20260508162914 87 128 0.0 2.0 0.00 0.00 0.00 24 1012.6
20260508162412 88 157 1.0 1.0 0.00 0.00 0.00 24 1012.5
20260508161909 88 347 0.0 3.0 0.00 0.00 0.00 24 1012.5
20260508161406 87 316 0.0 2.0 0.00 0.00 0.00 25 1012.5
20260508160903 84 90 0.0 2.0 0.00 0.00 0.00 25 1012.7
20260508160402 85 179 0.0 2.0 0.00 0.00 0.00 24 1012.5
20260508155858 81 117 1.0 2.0 0.00 0.00 0.00 25 1012.6
20260508155355 82 104 2.0 2.0 0.00 0.00 0.00 26 1012.7
20260508154852 83 89 0.0 2.0 0.00 0.00 0.00 26 1012.7
20260508154349 82 77 0.0 1.0 0.00 0.00 0.00 26 1012.7